Weather History for Bridgeport, CT

Change the Weather History Date:

Sunday, October 7, 2012

  Actual Average Record
Temperature  
Mean Temperature 50 °F 58 °F  
Max Temperature 55 °F 66 °F 78 °F (1997)
Min Temperature 45 °F 50 °F 35 °F (1984)
Degree Days  
Heating Degree Days 15 8  
Month to date heating degree days 18 47  
Since 1 July heating degree days 54 115  
Cooling Degree Days 0 1  
Month to date cooling degree days 7 7  
Year to date cooling degree days 1073 823  
Moisture  
Dew Point 43 °F    
Average Humidity 74    
Maximum Humidity 93    
Minimum Humidity 54    
Precipitation  
Precipitation 0.15 in 0.12 in 4.14 in (1972)
Month to date precipitation 1.25 0.83  
Year to date precipitation 33.46 33.21  
Snow  
Snow 0.00 in 0.00 in 0.00 in (2002)
Month to date snowfall 0.0 0.0  
Since 1 July snowfall 0.0 0.0  
Snow Depth 0.00 in    
Sea Level Pressure  
Sea Level Pressure 30.06 in    
Wind  
Wind Speed 3 mph (NW)    
Max Wind Speed 12 mph    
Max Gust Speed 15 mph    
Visibility 10 miles    
Events Rain    
T = Trace of Precipitation, MM = Missing Value Source: NWS Daily Summary

Daily Weather History Graph

Daily Weather History Graph

Search for Another Location

Airport:

Trip Planner

Search our weather history database for the weather conditions in past years. The results will help you decide how hot, cold, wet, or windy it might be!

Date:

Astronomy

Oct. 07, 2012 Rise Set
Actual Time 6:55 AM EDT 6:23 PM EDT
Civil Twilight 6:28 AM EDT 6:51 PM EDT
Nautical Twilight 5:56 AM EDT 7:23 PM EDT
Astronomical Twilight 5:24 AM EDT 7:55 PM EDT
Moon 11:30 PM EDT (10/7) 1:33 PM EDT (10/7)
Length of Visible Light 12h 22m
Length of Day
11h 27m
Waning Gibbous, 56% of the Moon is Illuminated
Oct 7
Waning Gibbous
Oct 8
Last Quarter
Oct 15
New
Oct 21
First Quarter
Oct 29
Full

Hourly Weather History & Observations

Time (EDT) Temp. Dew Point Humidity Pressure Visibility Wind Dir Wind Speed Gust Speed Precip Events Conditions
12:52 AM 53.1 °F 44.1 °F 71% 29.99 in 10.0 mi Calm Calm - N/A   Clear
1:52 AM 53.1 °F 44.1 °F 71% 30.01 in 10.0 mi West 3.5 mph - N/A   Clear
2:52 AM 51.1 °F 43.0 °F 74% 30.01 in 10.0 mi Calm Calm - N/A   Clear
3:52 AM 48.9 °F 43.0 °F 80% 30.02 in 10.0 mi NW 3.5 mph - N/A   Clear
4:52 AM 48.0 °F 43.0 °F 83% 30.03 in 10.0 mi Calm Calm - N/A   Clear
5:52 AM 46.9 °F 44.1 °F 90% 30.05 in 10.0 mi Calm Calm - N/A   Clear
6:52 AM 45.0 °F 42.1 °F 90% 30.09 in 10.0 mi Calm Calm - N/A   Clear
7:52 AM 48.0 °F 42.1 °F 80% 30.09 in 10.0 mi NNE 4.6 mph - N/A   Clear
8:52 AM 53.1 °F 41.0 °F 64% 30.11 in 10.0 mi North 5.8 mph - N/A   Partly Cloudy
9:52 AM 54.0 °F 37.0 °F 53% 30.10 in 10.0 mi Calm Calm - N/A   Partly Cloudy
10:52 AM 54.0 °F 39.9 °F 59% 30.09 in 10.0 mi NNE 6.9 mph - N/A   Overcast
11:52 AM 54.0 °F 39.9 °F 59% 30.10 in 10.0 mi North 4.6 mph - N/A   Overcast
12:52 PM 53.1 °F 44.1 °F 71% 30.09 in 10.0 mi NW 3.5 mph - 0.01 in Rain Light Rain
1:52 PM 53.1 °F 44.1 °F 71% 30.08 in 10.0 mi Calm Calm - 0.02 in Rain Light Rain
2:52 PM 53.1 °F 44.1 °F 71% 30.07 in 10.0 mi Calm Calm - 0.02 in Rain Light Rain
3:52 PM 54.0 °F 42.1 °F 64% 30.04 in 10.0 mi Calm Calm - 0.00 in   Overcast
4:52 PM 54.0 °F 42.1 °F 64% 30.03 in 10.0 mi Calm Calm - N/A   Overcast
5:52 PM 54.0 °F 44.1 °F 69% 30.02 in 10.0 mi North 4.6 mph - 0.00 in   Overcast
6:52 PM 53.1 °F 44.1 °F 71% 30.02 in 10.0 mi North 3.5 mph - 0.00 in   Overcast
7:52 PM 53.1 °F 44.1 °F 71% 30.05 in 10.0 mi NW 5.8 mph - N/A   Overcast
8:33 PM 51.8 °F 44.6 °F 76% 30.07 in 10.0 mi WNW 9.2 mph - 0.00 in Rain Light Rain
8:52 PM 50.0 °F 46.0 °F 86% 30.07 in 7.0 mi NW 3.5 mph - 0.01 in Rain Light Rain
9:52 PM 50.0 °F 46.9 °F 89% 30.10 in 10.0 mi West 10.4 mph - 0.03 in Rain Light Rain
10:52 PM 50.0 °F 46.0 °F 86% 30.09 in 10.0 mi WNW 5.8 mph - 0.04 in Rain Light Rain
11:52 PM 48.9 °F 46.0 °F 90% 30.11 in 10.0 mi WNW 8.1 mph - 0.02 in Rain Light Rain